• In Moldova, Republic
  • List of Countries
  • For 7 days
  • Water Temperature
  • Satellite Maps
  • Weather Map
  • Weather Widgets
  • user-avatar
    Login

    Hourly Weather Jewłach

    Today, 22 January, Sunday

    Time Temperature Precipitation Wind Pressure Humidity
    00:00 +1°C° 0 mm 2 mps 767 mmHg 68%
    01:00 +1°C° 0 mm 2 mps 767 mmHg 67%
    02:00 0°C° 0 mm 3 mps 767 mmHg 65%
    03:00 0°C° 0 mm 3 mps 767 mmHg 64%
    04:00 0°C° 0 mm 3 mps 766 mmHg 63%
    05:00 -1°C° 0 mm 4 mps 766 mmHg 61%
    06:00 -1°C° 0 mm 4 mps 766 mmHg 60%
    07:00 0°C° 0 mm 4 mps 766 mmHg 55%
    08:00 +1°C° 0 mm 5 mps 766 mmHg 51%
    09:00 +2°C° 0 mm 5 mps 766 mmHg 47%
    10:00 +3°C° 0 mm 5 mps 766 mmHg 43%
    11:00 +5°C° 0 mm 5 mps 765 mmHg 39%
    12:00 +7°C° 0 mm 6 mps 765 mmHg 35%
    13:00 +7°C° 0 mm 5 mps 765 mmHg 35%
    14:00 +7°C° 0 mm 5 mps 765 mmHg 34%
    15:00 +8°C° 0 mm 5 mps 765 mmHg 34%
    16:00 +6°C° 0 mm 4 mps 766 mmHg 40%
    17:00 +4°C° 0 mm 3 mps 767 mmHg 46%
    18:00 +4°C° 0 mm 1 mps 768 mmHg 52%
    19:00 +4°C° 0 mm 1 mps 769 mmHg 54%
    20:00 +4°C° 0 mm 1 mps 770 mmHg 55%
    21:00 +3°C° 0 mm 2 mps 771 mmHg 57%
    22:00 +3°C° 0 mm 2 mps 771 mmHg 59%
    23:00 +2°C° 0 mm 2 mps 772 mmHg 62%

    Tomorrow, 23 January, Monday

    Time Temperature Precipitation Wind Pressure Humidity
    00:00 +2°C° 0 mm 2 mps 772 mmHg 64%
    01:00 +2°C° 0 mm 2 mps 772 mmHg 70%
    02:00 +1°C° 0 mm 2 mps 773 mmHg 76%
    03:00 +1°C° 0 mm 2 mps 773 mmHg 81%
    04:00 +1°C° 0 mm 2 mps 773 mmHg 84%
    05:00 +1°C° 0 mm 1 mps 773 mmHg 87%
    06:00 +1°C° 0 mm 1 mps 773 mmHg 89%
    07:00 +2°C° 0 mm 1 mps 773 mmHg 85%
    08:00 +3°C° 0 mm 1 mps 773 mmHg 81%
    09:00 +3°C° 0 mm 1 mps 773 mmHg 77%
    10:00 +4°C° 0 mm 2 mps 773 mmHg 70%
    11:00 +5°C° 0 mm 2 mps 772 mmHg 63%
    12:00 +5°C° 0 mm 3 mps 772 mmHg 56%
    13:00 +7°C° 0 mm 3 mps 771 mmHg 53%
    14:00 +7°C° 0 mm 3 mps 771 mmHg 51%
    15:00 +7°C° 0 mm 3 mps 771 mmHg 48%
    16:00 +6°C° 0 mm 2 mps 771 mmHg 55%
    17:00 +5°C° 0 mm 1 mps 772 mmHg 61%
    18:00 +2°C° 0 mm 0 mps 772 mmHg 68%
    19:00 +3°C° 0 mm 1 mps 772 mmHg 69%
    20:00 +3°C° 0 mm 1 mps 772 mmHg 69%
    21:00 +3°C° 0 mm 1 mps 772 mmHg 70%
    22:00 +2°C° 0 mm 1 mps 773 mmHg 72%
    23:00 +2°C° 0 mm 1 mps 773 mmHg 73%

    Day after tomorrow, 24 January, Tuesday

    Time Temperature Precipitation Wind Pressure Humidity
    00:00 +2°C° 0 mm 1 mps 773 mmHg 74%
    01:00 +2°C° 0 mm 1 mps 773 mmHg 76%
    02:00 0°C° 0 mm 0 mps 773 mmHg 78%
    03:00 0°C° 0 mm 0 mps 773 mmHg 79%
    04:00 0°C° 0 mm 0 mps 773 mmHg 79%
    05:00 0°C° 0 mm 0 mps 772 mmHg 79%
    06:00 0°C° 0 mm 0 mps 772 mmHg 80%
    07:00 +1°C° 0 mm 0 mps 772 mmHg 71%
    08:00 +3°C° 0 mm 0 mps 772 mmHg 63%
    09:00 +5°C° 0 mm 0 mps 772 mmHg 55%
    10:00 +7°C° 0 mm 1 mps 772 mmHg 51%
    11:00 +8°C° 0 mm 1 mps 771 mmHg 46%
    12:00 +9°C° 0 mm 1 mps 770 mmHg 42%
    13:00 +10°C° 0 mm 1 mps 769 mmHg 41%
    14:00 +10°C° 0 mm 1 mps 769 mmHg 41%
    15:00 +10°C° 0 mm 1 mps 768 mmHg 40%
    16:00 +8°C° 0 mm 1 mps 768 mmHg 47%
    17:00 +6°C° 0 mm 1 mps 769 mmHg 54%
    18:00 +4°C° 0 mm 1 mps 769 mmHg 61%
    19:00 +4°C° 0 mm 1 mps 769 mmHg 62%
    20:00 +3°C° 0 mm 1 mps 769 mmHg 62%
    21:00 +3°C° 0 mm 1 mps 768 mmHg 62%
    22:00 +3°C° 0 mm 1 mps 768 mmHg 61%
    23:00 +3°C° 0 mm 1 mps 768 mmHg 60%

    25 January, Wednesday

    Time Temperature Precipitation Wind Pressure Humidity
    00:00 +2°C° 0 mm 1 mps 767 mmHg 59%
    01:00 +2°C° 0 mm 1 mps 767 mmHg 57%
    02:00 +2°C° 0 mm 2 mps 766 mmHg 54%
    03:00 +2°C° 0 mm 2 mps 766 mmHg 51%
    04:00 +1°C° 0 mm 2 mps 765 mmHg 50%
    05:00 +1°C° 0 mm 2 mps 765 mmHg 48%
    06:00 +1°C° 0 mm 2 mps 764 mmHg 46%
    07:00 +3°C° 0 mm 2 mps 764 mmHg 43%
    08:00 +4°C° 0 mm 2 mps 763 mmHg 39%
    09:00 +5°C° 0 mm 2 mps 763 mmHg 35%
    10:00 +7°C° 0 mm 3 mps 762 mmHg 32%
    11:00 +9°C° 0 mm 3 mps 761 mmHg 29%
    12:00 +10°C° 0 mm 3 mps 760 mmHg 26%
    13:00 +11°C° 0 mm 3 mps 760 mmHg 25%
    14:00 +11°C° 0 mm 4 mps 759 mmHg 24%
    15:00 +11°C° 0 mm 4 mps 759 mmHg 23%
    16:00 +10°C° 0 mm 3 mps 759 mmHg 26%
    17:00 +8°C° 0 mm 3 mps 759 mmHg 29%
    18:00 +7°C° 0 mm 3 mps 759 mmHg 32%
    19:00 +7°C° 0 mm 3 mps 759 mmHg 34%
    20:00 +7°C° 0 mm 3 mps 759 mmHg 36%
    21:00 +7°C° 0 mm 3 mps 758 mmHg 38%
    22:00 +5°C° 0 mm 3 mps 758 mmHg 40%
    23:00 +5°C° 0 mm 4 mps 758 mmHg 42%

    26 January, Thursday

    Time Temperature Precipitation Wind Pressure Humidity
    00:00 +5°C° 0 mm 4 mps 757 mmHg 44%
    01:00 +5°C° 0 mm 4 mps 757 mmHg 46%
    02:00 +5°C° 0 mm 4 mps 757 mmHg 47%
    03:00 +5°C° 0 mm 4 mps 757 mmHg 49%
    04:00 +5°C° 0 mm 4 mps 757 mmHg 50%
    05:00 +5°C° 0 mm 4 mps 757 mmHg 51%
    06:00 +5°C° 0 mm 4 mps 757 mmHg 52%
    07:00 +5°C° 0 mm 5 mps 757 mmHg 49%
    08:00 +6°C° 0 mm 5 mps 757 mmHg 47%
    09:00 +7°C° 0 mm 5 mps 757 mmHg 45%
    10:00 +8°C° 0 mm 5 mps 757 mmHg 43%
    11:00 +9°C° 0 mm 6 mps 757 mmHg 41%
    12:00 +11°C° 0 mm 7 mps 757 mmHg 38%
    13:00 +11°C° 0 mm 6 mps 757 mmHg 39%
    14:00 +10°C° 0 mm 6 mps 757 mmHg 39%
    15:00 +10°C° 0 mm 6 mps 757 mmHg 40%
    16:00 +9°C° 0 mm 5 mps 758 mmHg 43%
    17:00 +8°C° 0 mm 5 mps 758 mmHg 47%
    18:00 +7°C° 0 mm 4 mps 759 mmHg 50%
    19:00 +7°C° 0.1 mm 3 mps 760 mmHg 52%
    20:00 +7°C° 0.1 mm 3 mps 760 mmHg 54%
    21:00 +5°C° 0.1 mm 3 mps 761 mmHg 56%
    22:00 +6°C° 0.1 mm 2 mps 761 mmHg 59%
    23:00 +6°C° 0.1 mm 2 mps 761 mmHg 61%

    27 January, Friday

    Time Temperature Precipitation Wind Pressure Humidity
    00:00 +5°C° 0.1 mm 2 mps 762 mmHg 64%
    01:00 +6°C° 0.1 mm 1 mps 762 mmHg 68%
    02:00 +5°C° 0.1 mm 1 mps 762 mmHg 72%
    03:00 +5°C° 0.1 mm 1 mps 763 mmHg 76%
    04:00 +5°C° 0.2 mm 1 mps 763 mmHg 78%
    05:00 +4°C° 0.2 mm 1 mps 763 mmHg 81%
    06:00 +4°C° 0.2 mm 1 mps 764 mmHg 83%
    07:00 +3°C° 0.4 mm 2 mps 764 mmHg 82%
    08:00 +4°C° 0.4 mm 2 mps 764 mmHg 81%
    09:00 +4°C° 0.4 mm 2 mps 765 mmHg 80%
    10:00 +3°C° 0.4 mm 3 mps 764 mmHg 79%
    11:00 +4°C° 0.4 mm 3 mps 764 mmHg 78%
    12:00 +4°C° 0.4 mm 3 mps 764 mmHg 77%
    13:00 +4°C° 0.1 mm 3 mps 764 mmHg 76%
    14:00 +4°C° 0.1 mm 3 mps 764 mmHg 76%
    15:00 +4°C° 0.1 mm 3 mps 763 mmHg 75%
    16:00 +4°C° 0 mm 2 mps 764 mmHg 79%
    17:00 +4°C° 0 mm 2 mps 764 mmHg 82%
    18:00 +3°C° 0 mm 2 mps 765 mmHg 86%
    19:00 +3°C° 0.1 mm 2 mps 765 mmHg 85%
    20:00 +3°C° 0.1 mm 2 mps 765 mmHg 84%
    21:00 +3°C° 0.1 mm 2 mps 765 mmHg 83%
    22:00 +3°C° 0.1 mm 2 mps 765 mmHg 83%
    23:00 +3°C° 0.1 mm 2 mps 765 mmHg 84%
    Show more